Theta_e
324 324 330 335 335 316 320 318 318 319 318 318 317 316 316 316 317 312 321 322 323 323 325 326 329 332 331 324 323 322 322 322 320 322 322 324 327 328 329 331 331 331 330 331 333 334 335 338 338
325 329 331 327 332 317 315 315 317 316 316 314 315 316 318 319 320 320 319 319 319 318 322 327 327 326 327 326 325 325 326 326 324 323 323 325 327 328 328 328 329 331 331 330 331 333 334 336 337
327 333 333 333 325 321 314 314 315 315 315 315 316 317 320 321 319 319 319 318 315 315 318 320 322 324 326 330 329 327 327 327 325 323 323 325 325 325 326 328 328 328 330 330 331 331 332 334 336
331 331 324 331 319 315 314 313 314 316 316 314 317 320 320 319 319 320 316 315 315 314 315 319 324 326 328 332 330 328 327 324 325 324 324 325 325 325 325 326 327 328 328 330 330 331 333 335 336
332 323 328 327 320 315 314 313 313 315 315 315 318 321 320 319 319 317 316 316 315 315 318 322 324 328 333 331 328 326 324 324 323 325 325 325 325 325 324 324 325 327 327 328 331 330 334 336 334
325 323 328 328 324 315 316 315 314 315 314 318 319 319 318 319 318 318 317 318 318 318 318 320 324 325 318 320 321 320 321 322 322 325 325 325 325 325 325 324 324 326 328 327 331 331 334 333 330
327 328 332 330 320 317 316 314 313 315 314 315 317 319 317 317 317 315 315 314 313 313 314 315 315 316 317 318 318 320 324 323 323 325 326 325 325 324 324 324 324 325 328 328 330 331 332 331 330
326 325 323 317 315 317 316 315 313 315 317 316 317 317 315 315 314 314 314 315 315 316 319 318 317 318 318 317 318 319 319 321 323 324 324 324 323 324 323 324 324 326 328 329 331 332 333 332 330
319 324 323 319 315 317 314 314 314 316 317 317 316 315 314 314 315 315 315 316 318 320 321 322 320 318 318 319 320 320 319 318 319 319 319 320 321 322 323 322 323 326 328 330 331 332 333 330 330
321 318 320 315 315 314 313 314 315 317 318 317 314 314 314 314 315 314 315 317 320 320 322 321 319 319 319 320 320 320 320 319 319 318 315 314 319 322 321 320 322 326 328 330 331 332 332 331 331
323 325 318 317 315 313 313 315 316 317 318 316 314 313 313 313 314 315 317 319 320 321 320 319 319 320 320 320 320 319 319 320 320 318 319 318 317 315 317 322 324 325 327 328 331 330 331 331 330
323 322 318 317 316 314 314 315 318 318 317 316 314 313 313 313 313 315 318 320 322 320 320 319 320 321 320 320 320 320 319 319 319 318 319 319 321 318 319 320 321 324 325 326 326 326 331 331 329
319 319 317 316 314 315 315 316 317 317 316 315 313 313 313 312 314 318 320 322 321 321 319 320 321 322 321 320 321 321 320 320 320 320 321 322 322 322 322 323 323 324 325 326 328 327 329 330 330
319 317 317 315 314 314 315 316 317 316 316 314 313 312 312 313 315 318 321 322 320 319 319 319 320 321 321 320 323 322 322 321 321 320 320 320 321 323 323 324 324 325 326 326 327 326 329 333 332
318 319 317 316 314 316 314 316 315 316 316 314 313 312 313 312 316 318 322 321 320 318 318 318 321 321 322 321 323 322 322 322 322 320 319 320 323 323 324 324 325 326 326 327 327 327 328 330 332
320 317 318 317 315 316 315 316 315 316 316 314 313 313 313 313 316 319 322 321 321 318 319 317 321 322 322 322 323 323 323 323 323 323 324 324 324 325 325 326 325 326 326 326 327 328 330 331 333
318 320 317 318 315 316 315 316 316 316 316 315 313 313 313 314 315 319 322 322 321 318 319 318 322 322 323 322 324 325 325 325 324 324 324 325 326 326 326 326 326 327 328 328 329 328 331 331 332
319 320 318 318 317 315 314 314 315 316 315 315 313 313 314 314 315 319 322 322 322 319 318 318 323 324 325 325 325 325 326 326 325 325 325 325 324 324 326 326 323 321 328 327 329 329 330 331 331
319 320 321 320 318 317 316 315 315 317 316 314 313 313 314 314 315 319 322 323 322 321 319 318 322 323 323 324 325 325 326 325 326 325 325 324 323 324 325 326 328 328 329 329 330 330 330 330 330
318 319 319 318 318 316 317 317 315 316 317 315 313 313 313 313 314 317 320 322 322 321 322 319 322 323 324 324 325 325 326 326 326 326 325 325 326 324 325 326 328 328 329 328 330 330 330 330 330
319 319 319 319 319 316 316 316 318 317 317 316 313 313 312 312 314 315 317 319 322 319 319 320 316 318 322 325 326 326 326 326 326 326 322 325 327 327 325 327 328 328 328 329 328 329 329 329 329
319 318 318 320 318 317 316 317 318 318 318 318 314 312 312 312 313 315 315 316 323 322 319 319 317 316 316 324 325 325 326 327 327 327 327 325 326 327 327 327 327 327 327 328 329 329 329 329 328
321 320 318 319 319 317 319 318 318 319 320 322 314 313 311 311 312 315 315 317 321 323 320 320 319 322 320 322 326 327 325 326 328 326 327 323 324 326 327 327 326 328 328 328 328 328 329 328 328
320 317 318 317 317 318 317 318 318 321 321 322 316 314 312 311 312 315 317 318 319 324 321 321 323 324 320 323 325 325 323 322 323 325 328 328 328 327 329 328 328 328 328 327 328 328 328 328 327
316 315 316 319 320 322 320 320 320 319 319 322 320 315 313 312 311 315 314 317 318 322 323 320 323 323 319 321 324 326 321 321 323 324 324 328 329 330 329 327 328 328 329 329 327 327 327 329 328
315 315 317 320 320 320 324 325 325 321 324 319 321 316 313 312 311 314 315 317 319 320 324 324 322 322 319 319 321 321 320 320 320 320 321 328 329 329 329 329 329 329 330 330 329 329 328 329 329
316 318 316 318 320 322 323 325 328 325 325 322 317 314 314 313 312 315 315 317 318 320 321 325 323 321 319 320 319 319 321 319 319 319 319 321 325 328 326 325 328 329 330 330 330 331 331 329 330
315 316 318 316 322 323 323 328 329 329 327 325 317 315 314 312 313 314 314 316 318 321 321 324 323 320 321 319 320 320 319 317 318 319 319 319 323 325 323 323 324 326 328 329 329 329 329 329 329
321 323 323 317 319 322 322 327 327 329 328 326 319 315 314 313 315 314 313 317 319 320 321 323 323 318 317 318 319 319 320 320 317 319 321 319 320 321 322 320 321 322 325 327 328 328 327 328 327
320 321 324 323 326 325 325 329 325 329 330 326 321 316 314 314 315 313 314 317 317 320 320 323 321 318 315 315 316 316 318 319 318 318 321 322 320 322 321 320 320 320 322 326 327 325 326 326 324
Wind_Speed
8 6 3 3 3 5 2 5 0 3 2 3 1 3 4 2 2 4 5 7 7 6 12 18 18 15 15 13 14 14 12 11 11 10 10 10 10 9 10 10 10 11 11 11 10 9 8 7 6
9 6 3 2 4 3 5 3 4 6 5 6 5 4 3 1 2 4 4 5 1 6 10 19 18 18 17 16 15 14 13 12 11 11 11 11 10 10 10 11 11 11 12 13 13 11 9 8 7
7 3 3 3 4 5 5 5 8 5 6 7 3 4 3 3 2 5 4 2 4 3 6 11 15 15 15 15 15 15 14 14 13 13 13 13 11 10 9 10 13 13 13 15 14 13 11 10 9
4 4 4 3 5 6 6 7 6 2 3 3 5 6 2 2 4 5 1 1 7 7 11 11 14 15 15 15 15 15 15 16 16 15 15 15 14 13 12 11 11 14 15 16 17 15 13 11 11
3 3 3 3 4 4 3 4 7 5 2 2 3 5 3 1 6 3 1 7 11 12 8 8 9 12 12 13 15 17 19 19 18 17 16 17 16 15 14 14 14 14 17 18 17 17 15 13 13
3 3 3 3 5 4 2 5 8 4 1 2 4 4 3 1 5 1 3 4 5 4 4 6 7 9 11 13 17 19 21 21 21 20 19 18 18 16 15 16 16 15 18 19 20 19 17 16 14
6 4 4 5 5 1 4 6 6 5 6 3 8 4 1 1 3 8 10 7 6 6 4 1 4 6 10 12 15 17 17 19 21 21 22 22 21 20 17 17 17 17 17 20 20 21 19 18 16
4 4 2 4 5 5 4 6 6 7 4 6 3 5 4 3 10 11 11 9 8 5 5 6 8 10 10 12 13 15 16 13 13 15 19 18 19 21 20 19 17 17 18 20 21 21 20 19 16
4 3 3 5 8 6 4 5 3 2 5 3 2 4 8 13 11 9 9 9 9 9 9 10 8 10 14 15 13 15 14 15 15 18 22 24 25 25 25 22 19 15 17 19 20 20 19 18 16
4 3 6 6 4 6 7 6 8 5 4 3 5 5 12 10 10 12 8 8 12 11 10 5 10 15 15 13 14 12 9 8 9 10 11 12 18 20 21 20 17 14 16 17 19 20 19 17 15
4 6 6 4 4 6 6 3 5 12 2 7 11 9 6 9 10 9 5 8 9 8 6 9 9 14 14 13 14 10 8 8 9 8 6 7 9 14 15 13 13 14 16 17 20 20 17 19 17
3 10 7 6 5 6 8 6 5 4 8 10 9 9 6 7 7 6 8 9 8 8 7 8 9 13 11 10 9 9 9 9 7 2 3 1 3 8 10 11 11 11 11 14 18 19 18 19 19
4 4 5 7 8 6 6 4 6 6 6 8 9 8 9 8 8 7 8 7 7 9 9 8 8 11 8 6 7 8 7 6 3 1 1 2 3 5 6 8 9 10 9 12 15 17 18 20 22
5 5 5 5 7 7 6 3 4 5 6 9 10 9 8 9 9 6 7 7 7 8 10 8 7 10 8 6 8 9 7 4 2 1 2 3 3 4 5 7 8 12 12 12 15 18 19 21 29
3 4 5 3 5 5 5 2 8 7 8 10 8 7 8 7 9 8 7 5 6 10 9 10 8 9 9 6 9 9 8 5 3 2 4 4 3 4 3 5 7 10 12 13 15 20 22 25 29
3 4 3 5 5 2 6 9 4 9 11 10 8 7 7 6 8 8 7 5 6 9 9 9 7 6 9 7 9 8 6 5 4 2 1 3 4 5 4 6 7 9 14 17 22 25 28 28 30
5 4 5 5 8 3 3 7 3 9 9 9 9 7 7 6 5 8 7 5 5 8 7 8 7 6 10 7 8 8 7 6 5 4 3 4 0 3 7 14 15 14 18 21 27 27 31 28 30
5 5 5 5 4 6 6 10 4 8 8 10 8 7 7 7 5 10 8 5 3 5 5 5 7 7 8 8 7 7 8 7 6 5 2 7 7 8 12 15 15 9 22 30 29 28 32 31 33
5 4 7 3 4 6 11 8 10 8 4 8 8 8 7 7 7 10 9 6 2 2 4 5 4 7 8 7 7 7 9 9 7 6 3 10 6 8 18 18 19 23 23 28 29 29 32 29 35
5 7 7 7 4 8 7 12 5 8 10 6 10 8 9 5 5 7 9 7 3 2 2 3 6 10 12 9 4 4 6 5 7 7 8 16 14 17 20 20 22 24 23 25 32 26 25 27 25
6 5 5 7 5 2 3 6 3 4 5 7 6 6 5 10 9 6 8 7 6 3 2 1 2 4 7 13 4 2 5 9 9 13 10 18 16 9 12 17 21 22 23 27 27 28 27 19 22
6 8 9 5 3 6 5 5 5 4 10 9 11 9 10 9 5 6 9 8 9 4 2 3 3 3 6 8 8 8 10 14 11 14 11 15 14 16 14 14 17 19 24 26 27 28 28 28 19
11 10 10 5 5 2 0 3 7 3 6 9 13 12 10 9 9 9 11 12 10 9 3 3 3 6 6 11 11 12 18 19 17 10 13 13 9 10 6 6 10 15 18 20 27 27 33 20 19
13 1 6 4 3 2 6 5 5 5 8 5 8 10 12 10 8 8 18 13 10 11 7 5 4 6 9 13 13 12 14 14 14 13 12 10 12 4 10 15 9 8 13 17 22 23 28 19 19
4 5 3 4 3 6 1 3 8 9 11 10 19 15 13 10 9 8 8 12 11 12 12 7 4 8 9 13 11 9 12 13 14 14 12 14 14 12 18 17 14 12 14 15 22 21 21 15 19
9 10 6 7 5 9 3 5 7 6 8 7 13 15 14 10 8 9 12 17 15 13 15 11 7 8 10 13 14 14 14 13 13 15 14 15 18 19 17 16 11 11 18 16 19 21 19 13 18
6 4 8 5 2 2 3 6 9 3 6 8 9 13 14 12 9 11 13 20 16 16 15 15 11 9 10 11 14 14 14 13 12 15 14 15 17 22 20 11 12 12 14 16 17 14 16 12 12
8 5 3 2 3 6 3 3 6 6 4 5 8 11 12 9 9 9 11 19 17 20 16 14 14 12 12 11 12 13 12 13 13 14 16 16 16 15 14 15 17 17 16 18 15 15 13 17 16
2 2 4 4 4 6 1 6 7 8 8 15 15 17 17 15 13 12 12 21 18 16 16 18 17 14 13 13 13 13 13 13 12 13 16 18 18 17 20 23 23 25 24 22 21 21 21 18 16
5 10 8 5 4 2 4 7 4 4 9 8 12 16 15 15 14 11 15 20 17 17 15 21 20 17 15 13 12 12 13 14 12 14 14 17 17 17 19 19 23 26 26 26 26 24 21 20 17
Wind_Direction
131 119 102 82 72 69 253 249 244 210 253 233 13 145 167 110 152 215 125 174 223 209 215 218 223 220 220 233 240 243 253 263 274 255 250 253 253 253 257 260 262 251 248 253 257 252 262 267 269
144 130 63 76 90 91 254 246 235 223 221 88 99 92 54 87 105 141 130 141 231 261 218 217 223 230 227 230 235 242 247 245 250 252 251 247 246 249 254 261 266 260 246 246 248 249 251 260 257
143 104 87 109 118 189 211 193 217 241 219 159 136 46 125 147 127 147 157 246 275 255 224 231 234 233 231 233 236 244 248 249 251 246 243 238 239 244 248 252 260 259 251 240 242 243 242 251 250
129 28 30 94 231 246 198 197 203 213 266 221 133 100 39 290 157 168 13 310 266 263 261 239 230 233 235 237 244 252 256 262 257 250 242 234 239 241 248 256 264 257 251 244 234 236 236 234 245
103 61 47 316 264 257 214 187 168 196 244 247 134 159 142 284 148 127 326 273 263 270 243 221 234 244 241 250 259 265 265 266 264 253 242 237 238 246 250 255 259 259 245 239 237 228 227 229 236
59 104 62 269 261 278 268 179 159 204 236 209 80 92 202 167 187 229 313 100 89 107 185 223 237 249 264 272 272 270 269 265 261 253 245 237 240 243 246 254 257 256 241 238 230 222 220 223 230
130 104 219 245 265 175 230 157 170 173 155 228 152 113 234 138 145 117 105 104 92 86 63 272 253 260 262 275 275 271 266 262 253 246 245 244 242 246 247 260 256 251 242 237 231 221 216 219 225
125 108 197 221 214 221 219 167 167 149 187 125 133 172 200 179 133 105 93 80 72 65 358 311 276 287 300 306 294 278 267 263 243 252 256 252 244 239 243 253 250 249 240 241 226 215 213 214 219
139 75 253 243 167 224 193 150 205 100 102 68 23 134 144 142 134 104 72 44 36 16 351 322 285 313 317 313 301 295 280 272 271 268 265 258 252 242 241 236 241 245 238 237 218 209 210 209 211
116 138 235 208 228 202 179 162 163 111 117 58 73 70 130 134 115 89 66 35 19 352 341 318 318 322 322 316 315 312 305 282 291 299 275 262 239 230 233 241 237 235 241 224 209 203 205 199 197
196 225 200 267 214 161 166 193 156 126 212 197 174 169 145 120 101 100 75 40 10 5 349 327 322 328 326 326 326 320 309 308 308 289 268 264 244 229 222 224 219 233 229 214 202 198 199 194 191
255 258 195 192 170 143 170 157 150 178 211 166 165 153 142 137 134 133 68 37 19 2 335 337 330 337 327 331 343 350 341 329 318 305 288 263 205 203 207 215 221 226 213 203 199 198 196 191 192
215 239 178 147 152 167 133 182 175 201 165 136 136 140 148 145 149 101 76 49 23 351 356 351 345 348 335 343 350 351 342 330 358 360 123 94 104 138 182 207 217 216 213 206 200 196 187 187 188
229 207 182 167 174 154 132 176 124 231 159 143 145 159 156 149 152 122 80 59 25 1 4 356 333 344 348 346 355 352 338 330 346 234 198 168 169 176 192 219 221 210 210 206 196 186 179 175 175
168 111 347 250 191 189 129 197 231 183 162 161 160 160 150 157 153 124 109 88 30 20 14 9 333 336 350 10 8 3 6 9 12 139 177 171 222 254 219 197 201 204 206 192 181 170 166 151 164
165 84 186 256 150 272 125 261 253 169 162 177 167 166 155 165 159 137 125 102 38 31 23 10 347 356 10 15 12 6 13 8 15 26 185 237 279 261 227 193 172 178 169 169 164 160 149 149 149
358 251 227 296 190 143 169 258 261 169 174 178 177 169 161 153 150 141 143 114 56 39 24 18 10 5 19 28 16 18 20 22 18 5 328 282 17 124 151 146 130 138 156 162 154 153 141 140 135
246 273 264 259 216 188 201 249 277 188 185 178 175 169 167 158 184 151 156 147 82 45 24 39 29 28 32 31 25 33 37 39 49 53 37 110 97 99 130 150 156 161 148 152 139 142 134 129 127
222 236 257 246 244 182 225 224 231 196 205 171 173 177 174 178 197 151 156 173 112 36 22 42 5 7 15 27 14 24 21 27 38 55 83 95 71 96 144 129 136 146 138 143 139 130 129 123 126
237 253 273 283 245 178 253 245 216 187 215 180 171 185 179 185 180 164 162 185 135 33 312 81 76 51 34 34 19 17 12 11 33 80 75 77 90 95 112 122 137 140 121 133 141 132 132 122 130
258 231 250 236 338 234 127 302 209 220 180 158 188 177 169 180 177 178 178 187 150 80 25 30 96 62 43 40 49 53 39 46 71 105 81 100 100 93 123 116 126 137 131 130 139 136 136 121 133
267 235 247 249 157 236 141 257 293 230 209 190 177 180 183 189 170 179 178 190 168 146 65 74 130 71 63 60 73 77 69 69 44 74 93 98 79 90 98 112 123 125 143 138 138 137 132 125 124
249 240 233 229 206 142 300 87 265 119 218 227 199 189 184 190 175 184 184 189 181 179 151 156 87 59 81 113 89 90 84 85 76 78 81 87 108 118 67 122 142 122 141 129 134 133 137 120 115
245 260 48 45 87 34 233 151 285 225 211 207 191 192 178 184 185 189 186 187 182 185 167 141 99 89 96 129 108 101 86 93 97 94 73 64 88 158 175 180 168 159 151 142 147 141 151 133 123
115 82 289 333 346 220 264 111 229 250 238 199 187 185 174 176 176 180 184 199 183 192 193 185 136 116 111 124 133 127 101 98 97 98 100 112 109 115 139 159 177 180 176 163 166 160 166 142 138
204 184 172 213 226 260 188 230 255 231 275 217 192 172 155 169 178 182 191 194 191 200 205 202 181 141 132 130 129 126 117 108 95 91 102 107 100 104 134 160 168 157 168 172 171 177 186 158 154
221 176 204 131 354 44 255 298 319 25 38 107 133 149 169 178 178 188 192 195 194 205 211 203 193 176 157 137 137 134 127 129 112 96 99 116 112 108 125 108 127 148 161 169 173 183 189 188 156
166 174 87 0 177 252 275 267 246 271 176 150 158 173 175 165 176 192 191 198 198 208 215 203 194 191 180 165 150 141 138 135 140 113 111 117 130 128 109 113 131 145 143 143 145 140 141 131 124
205 158 57 125 138 188 194 263 222 247 198 200 187 176 179 176 182 188 195 197 195 206 209 200 194 189 187 176 165 153 146 146 147 139 116 117 121 122 118 112 120 130 134 138 130 131 133 137 130
177 187 155 172 226 153 158 262 29 277 214 198 201 181 179 178 178 190 188 194 192 189 199 199 195 192 185 176 173 165 160 155 151 153 126 116 120 120 123 114 108 113 121 128 133 131 134 139 138